GFSMA_250_spd_000.txt.gz
Wind_Speed
32 42 45 44 35 36 36 37 28 20 19 21 17 14 15 14 14 13 16 20 21 21 22 22 23 21 20 16 14 11 11 14 19 21 18 18 20 18 23 25 25 24 25
31 42 45 47 38 41 35 36 27 20 25 21 19 16 17 12 12 16 19 19 18 18 19 19 20 20 19 18 11 14 11 14 15 17 18 16 18 19 20 22 27 26 25
30 36 44 47 40 45 36 36 32 22 22 20 21 17 20 16 20 20 21 21 20 19 17 15 13 15 16 16 14 11 12 16 14 16 18 19 19 19 20 24 26 26 27
35 36 38 47 45 47 40 34 32 27 23 24 20 22 20 17 19 17 18 19 19 16 15 11 9 11 14 15 17 13 15 17 19 18 17 20 20 19 20 22 26 26 27
40 40 38 39 42 46 38 35 34 30 27 23 24 24 19 20 19 19 20 17 18 16 15 11 11 13 18 19 17 20 17 20 17 19 20 17 21 24 26 28 27 27 29
42 43 40 39 41 43 37 37 34 34 26 24 24 27 19 23 20 21 18 16 18 16 16 14 10 17 19 19 22 19 23 22 21 23 24 24 23 27 28 29 29 26 27
49 44 44 43 45 42 34 35 34 32 31 26 25 24 20 24 24 25 22 18 18 18 18 19 14 14 19 19 20 28 25 23 26 27 29 27 27 28 33 33 31 35 33
53 52 49 45 43 46 39 36 35 33 29 28 27 27 27 22 23 25 27 23 22 22 20 23 18 17 26 28 29 27 28 30 32 33 32 27 28 29 34 38 38 37 33
47 57 56 48 44 48 44 42 36 34 33 32 28 22 26 27 27 23 23 26 24 27 25 24 24 26 27 31 31 28 31 34 33 35 32 30 30 34 37 31 29 32 38
40 58 56 52 49 47 48 42 40 38 33 30 26 24 23 25 26 24 22 23 29 31 28 28 24 30 27 26 29 32 31 37 38 37 35 34 37 40 40 38 39 41 42
29 51 60 59 52 51 48 43 40 40 38 32 25 27 25 27 31 28 29 28 29 30 32 30 30 30 32 31 29 36 36 36 41 41 39 38 40 41 43 44 42 44 43
32 35 59 61 57 51 49 47 39 37 36 34 26 29 28 31 30 28 27 27 27 33 31 35 36 34 36 38 39 38 41 41 40 41 43 46 47 45 44 45 46 47 44
32 32 49 62 60 52 50 46 43 35 34 32 30 32 31 34 30 30 27 27 25 24 29 34 37 39 41 44 45 43 41 41 41 43 47 49 48 50 53 51 53 53 55
23 28 37 59 59 59 50 48 45 46 39 37 35 36 36 31 34 31 29 28 27 30 31 32 34 36 40 44 44 44 45 44 46 47 49 52 52 52 54 57 59 62 63
16 25 29 50 58 60 56 51 49 42 45 44 41 36 38 38 37 34 34 33 29 31 35 37 39 37 40 44 45 47 48 50 52 54 55 57 60 61 62 63 67 71 71
8 23 23 34 49 56 58 55 50 46 45 42 44 41 41 42 42 42 40 38 34 34 38 40 41 40 41 46 48 50 53 54 55 59 63 64 65 67 69 74 76 78 75
6 12 19 23 38 50 59 55 52 51 45 46 44 44 45 47 47 46 44 47 45 40 38 42 46 49 50 54 56 56 56 57 62 66 69 72 74 75 79 79 79 78 72
1 7 16 21 32 42 51 53 53 52 48 47 47 48 49 51 52 54 53 51 49 48 48 50 52 52 53 55 56 58 64 69 72 76 78 78 79 81 82 81 78 70 64
4 6 8 14 28 37 42 50 50 53 54 54 51 52 53 54 55 55 57 53 55 55 57 59 60 61 61 62 65 70 73 76 78 78 80 81 82 80 77 72 66 65 63
10 9 11 13 17 27 38 47 50 50 52 54 56 59 56 53 54 56 58 58 60 60 63 64 66 71 72 72 76 77 77 78 80 83 84 82 76 74 69 72 72 71 65
12 11 14 16 19 23 27 33 40 45 47 48 48 50 50 49 51 55 60 63 65 66 66 70 73 77 80 80 79 77 80 84 83 83 80 76 73 72 76 73 70 68 66
15 18 18 18 19 25 29 32 36 41 42 41 43 47 50 52 56 58 61 65 67 69 71 75 77 79 77 78 82 84 83 79 77 76 75 77 79 76 70 72 73 75 76
21 21 22 27 29 30 31 33 37 41 45 47 50 54 57 60 63 65 67 69 71 74 75 76 77 80 82 83 82 81 78 81 81 81 82 80 77 76 72 75 79 82 85
25 27 26 27 31 34 37 40 43 44 45 48 53 57 61 64 66 69 71 72 75 77 78 79 79 80 80 83 82 83 85 82 82 82 80 81 79 77 77 79 82 87 88
34 29 31 36 35 34 37 39 43 46 49 53 55 58 62 66 70 73 76 80 80 81 83 85 89 91 89 84 84 81 79 77 77 79 79 81 83 83 85 88 89 91 89
35 36 35 38 43 44 44 44 49 51 53 55 56 60 63 67 72 75 78 80 81 83 86 87 87 89 85 84 83 83 84 85 82 83 83 88 90 93 95 98 101 97 97

GFSMA_250_spd_006.txt.gz
Wind_Speed
12 12 18 35 48 49 49 49 46 39 38 30 26 19 16 13 10 10 12 12 16 14 17 17 17 15 12 6 7 8 11 6 4 8 10 8 11 12 14 15 16 19 18
16 15 18 28 43 48 51 51 49 42 39 29 31 25 19 14 11 12 14 14 13 17 15 15 17 9 5 6 5 6 10 8 7 5 8 11 13 11 14 18 17 18 21
24 21 20 23 38 46 53 48 49 45 40 34 29 20 23 22 16 18 14 13 12 14 16 13 10 7 6 4 6 2 7 8 7 11 8 12 13 15 18 23 21 19 23
27 26 28 24 34 47 52 51 47 46 44 39 30 28 29 25 23 15 17 15 17 13 14 8 7 8 7 8 7 5 3 7 7 10 12 12 13 14 21 23 23 21 24
25 27 30 26 28 37 45 42 46 47 46 41 35 33 31 27 24 21 21 17 13 13 14 11 11 8 9 14 14 17 10 8 8 12 14 17 19 23 24 21 23 23 25
29 32 31 31 32 40 42 41 41 48 46 40 37 35 35 27 25 20 19 17 14 15 15 18 15 12 12 14 13 11 10 11 10 12 18 24 25 24 25 24 23 24 28
38 34 33 33 33 44 44 42 44 45 45 45 38 37 35 30 29 26 23 24 20 20 23 17 18 15 18 19 16 13 11 17 18 15 26 33 30 27 27 28 27 26 27
36 39 39 35 36 41 44 48 43 41 44 43 42 42 35 30 28 28 27 24 18 18 19 20 23 20 21 23 24 24 21 18 20 22 24 26 27 28 30 30 28 31 30
33 37 40 41 40 39 45 50 46 44 41 43 44 39 34 32 32 30 23 21 21 20 23 20 21 21 26 23 27 30 31 29 25 24 24 27 28 33 33 34 30 29 34
35 35 37 44 45 42 45 51 51 47 43 44 43 39 35 36 36 36 30 27 25 21 23 23 22 23 28 29 32 33 33 33 24 25 30 29 32 33 35 35 34 34 37
34 34 33 42 48 47 43 47 48 48 46 45 44 39 36 37 34 29 28 29 29 24 22 27 26 26 28 29 30 29 26 26 24 30 31 34 36 38 37 36 34 37 40
25 36 35 40 48 50 47 46 45 47 46 46 45 45 42 38 38 34 32 32 28 23 22 32 28 26 23 28 29 31 29 28 31 31 32 36 36 34 37 36 36 39 45
17 27 33 36 46 50 52 48 47 48 48 45 48 45 39 37 39 39 37 35 26 25 30 29 29 29 26 24 25 26 26 28 28 30 32 33 34 37 39 41 46 48 47
9 20 28 30 40 49 53 49 48 49 52 48 47 40 37 38 40 41 38 35 31 35 37 33 34 33 31 25 26 25 26 29 35 40 41 39 39 42 45 48 51 54 54
8 9 20 30 30 43 54 53 50 49 51 50 46 43 41 41 41 42 38 38 41 40 36 35 34 35 38 36 35 34 35 40 44 44 44 42 46 48 51 53 57 58 61
9 8 12 22 28 31 49 54 51 48 48 50 47 42 43 43 42 44 44 41 42 41 41 41 39 39 39 40 42 45 46 45 45 49 50 49 53 56 61 63 65 65 64
12 8 10 16 22 27 34 51 52 51 47 46 47 46 44 44 45 46 42 43 44 43 45 44 46 46 47 51 50 49 49 50 51 52 55 59 61 65 67 69 69 67 67
12 12 8 7 13 19 26 34 52 53 50 49 47 48 47 45 45 45 47 48 49 49 50 50 50 53 54 56 58 59 59 61 61 62 64 67 70 72 71 71 69 71 72
13 13 11 9 11 15 20 27 39 48 49 50 53 52 51 50 46 47 50 51 53 56 57 58 57 58 60 61 62 63 64 66 67 68 71 73 74 72 70 72 74 76 78
13 13 14 11 8 10 15 19 31 41 45 50 54 55 55 55 54 53 55 57 59 59 60 61 63 64 64 66 68 70 71 72 70 71 73 74 75 75 77 82 82 82 80
10 10 12 11 11 10 9 12 22 38 44 47 48 53 56 57 59 59 60 62 63 64 63 64 62 65 69 70 72 75 76 76 75 75 77 79 82 83 85 87 86 87 89
16 16 16 13 15 19 18 15 16 22 34 46 51 54 58 63 64 63 65 68 70 70 70 71 73 77 79 80 83 82 80 78 79 80 83 84 87 88 88 91 94 91 88
22 21 22 24 24 25 24 26 26 25 28 34 43 49 52 58 66 69 69 70 72 73 75 77 78 78 79 78 77 79 80 81 83 86 87 87 89 91 93 93 92 93 96
29 27 23 25 27 28 29 29 31 32 35 38 41 44 48 52 56 61 65 69 71 71 72 74 74 76 78 80 81 83 86 88 89 90 90 90 91 92 96 99 100 101 99
32 31 30 31 30 29 30 31 33 37 41 43 44 47 50 54 57 59 62 64 67 69 71 73 75 77 80 83 86 87 89 89 91 94 96 96 99 100 101 100 101 95 91
29 31 34 36 37 37 38 38 40 42 46 48 51 55 58 60 60 62 66 68 70 72 75 77 79 82 84 85 88 90 94 96 97 99 99 99 101 102 101 99 97 98 100

GFSMA_250_spd_009.txt.gz
Wind_Speed
17 14 12 16 25 36 43 45 47 47 46 40 36 28 26 20 16 13 16 12 12 10 12 15 14 16 11 8 6 8 10 6 7 7 5 4 8 8 9 16 19 20 17
23 17 15 17 19 31 41 47 47 46 46 41 37 31 23 22 16 15 13 14 12 10 11 13 15 12 6 7 6 7 8 6 5 4 7 9 11 8 11 16 19 19 18
28 25 21 20 21 25 42 46 44 49 46 43 40 30 23 19 19 20 15 13 12 9 12 13 11 5 6 5 6 5 6 8 6 7 8 10 13 14 16 17 22 18 18
27 27 26 22 24 26 38 49 45 47 48 42 41 36 29 28 23 24 17 15 13 12 15 13 11 12 10 9 9 7 8 11 8 9 7 9 11 15 18 21 23 23 20
29 30 27 27 27 27 31 44 48 46 45 47 44 38 29 34 28 26 20 20 14 13 16 12 13 13 13 11 10 11 11 8 8 7 9 12 15 18 22 22 22 25 24
37 32 34 27 25 31 30 42 50 49 48 44 44 39 37 35 34 28 25 20 15 16 14 13 15 18 17 16 9 13 13 11 8 10 14 20 19 24 26 23 24 28 25
31 40 38 33 29 32 30 37 49 54 47 45 51 41 39 39 37 29 23 20 18 28 23 17 21 18 18 16 19 17 18 15 13 15 17 22 22 25 24 24 27 30 29
34 34 40 39 35 31 33 36 44 53 49 49 52 44 36 38 38 34 32 22 22 30 26 20 20 23 22 22 23 22 22 23 24 25 24 25 21 22 25 24 30 32 30
35 36 40 39 42 35 35 36 43 43 44 50 49 45 38 38 41 39 36 35 27 31 28 25 20 20 21 27 26 27 28 26 27 29 32 26 22 26 27 29 31 35 34
23 34 36 42 45 41 37 36 43 45 44 46 45 46 41 42 40 42 39 38 34 31 29 26 23 22 22 25 28 31 33 30 33 33 32 28 27 27 31 34 32 35 35
23 22 31 40 41 45 39 38 43 46 44 47 42 43 42 44 41 40 40 38 37 35 34 33 28 26 22 26 27 30 31 33 35 30 27 31 30 33 36 38 35 36 38
27 24 27 35 39 40 42 43 42 48 50 47 46 44 44 46 44 44 43 40 37 36 34 33 34 32 26 31 25 25 30 32 30 30 31 34 38 39 37 38 37 38 39
24 22 16 31 35 34 38 46 43 47 49 51 48 45 43 44 44 45 44 42 41 37 32 34 40 41 32 29 27 26 25 25 28 34 37 36 36 36 35 36 39 41 46
22 18 12 18 31 33 33 44 46 44 46 51 51 49 47 47 47 46 44 43 43 40 39 40 43 43 36 35 33 31 31 31 29 34 38 38 38 41 41 40 45 47 49
21 20 14 16 22 28 28 39 46 47 46 46 51 49 49 47 47 47 45 44 43 44 46 47 46 45 39 37 37 35 36 38 37 39 43 45 49 48 47 51 53 55 57
18 20 18 13 16 25 23 31 43 47 47 46 45 47 47 43 45 44 43 44 45 47 47 48 48 49 45 42 41 41 43 45 47 48 51 54 55 56 56 60 61 63 65
16 16 18 16 12 16 25 22 33 43 45 46 46 45 47 44 44 45 44 46 46 48 50 52 54 52 47 46 46 47 49 51 53 54 56 59 61 62 64 65 67 67 67
16 13 14 13 9 10 14 23 24 36 46 46 48 43 43 45 44 44 46 48 51 51 51 50 55 54 51 51 54 56 55 57 58 59 62 63 66 68 69 70 72 74 74
15 15 14 11 8 8 7 10 19 25 36 44 47 44 45 47 47 47 46 45 47 50 52 52 54 56 58 60 62 64 65 67 69 70 71 72 72 73 75 76 77 77 72
11 11 14 13 10 9 8 8 11 19 28 36 44 45 45 50 50 52 51 53 53 53 53 56 59 63 65 68 71 72 73 74 76 77 75 75 75 77 76 76 73 72 77
12 11 14 12 10 12 12 12 11 13 20 30 37 43 46 48 51 55 56 57 57 58 61 63 65 66 68 70 72 74 75 77 78 78 78 80 80 79 81 79 79 81 83
15 17 17 18 19 18 17 17 16 15 16 22 33 41 45 47 51 55 58 59 61 64 66 69 70 72 75 77 77 78 80 84 86 86 86 87 86 84 85 83 86 88 89
26 27 26 26 20 21 22 24 22 21 21 23 25 30 37 45 50 55 59 62 64 68 71 73 75 77 79 81 82 83 84 84 83 85 83 83 85 89 90 91 93 94 90
30 31 29 26 26 26 25 25 25 25 26 28 29 31 35 39 43 47 53 57 61 65 69 72 76 79 81 81 81 82 81 81 81 87 87 88 90 95 96 96 94 94 94
24 27 27 27 28 28 31 32 33 33 33 34 35 36 39 42 45 49 53 55 58 62 66 68 71 73 76 79 80 83 85 86 87 89 92 93 94 96 97 99 103 105 103
28 28 28 31 33 34 33 34 33 35 37 39 40 42 44 47 51 54 58 60 64 68 72 74 78 80 82 84 85 86 88 89 92 93 94 95 97 99 100 99 101 102 102

GFSMA_250_spd_015.txt.gz
Wind_Speed
13 19 14 12 10 6 13 26 37 50 47 36 37 35 37 33 22 23 19 16 13 13 8 6 9 9 15 12 9 7 8 8 8 9 5 5 4 7 7 8 11 14 16
18 18 15 16 13 11 9 18 27 46 50 39 36 38 35 34 26 26 22 19 16 15 11 6 10 4 15 13 10 9 9 8 10 10 7 5 7 6 6 9 11 13 14
20 25 22 19 20 18 15 15 22 34 52 48 37 34 33 35 32 32 25 23 18 20 15 9 8 7 11 11 10 7 6 4 4 9 8 8 10 11 10 12 14 12 12
13 23 25 26 22 22 22 18 16 26 46 53 47 39 34 32 33 35 31 21 19 20 16 13 8 9 12 12 12 11 12 9 9 10 12 12 14 13 13 17 15 13 13
14 13 23 27 24 22 21 24 21 17 32 53 55 47 39 30 35 34 31 23 22 22 17 13 12 12 11 14 12 13 12 13 15 13 14 18 19 15 15 17 16 15 14
26 20 19 25 31 26 22 22 25 25 25 38 53 48 44 38 37 33 33 28 27 24 21 19 15 16 16 16 13 15 16 16 12 15 12 15 16 17 19 20 18 15 18
29 27 23 22 28 29 25 25 24 26 24 34 42 46 47 45 40 35 35 34 31 28 24 25 22 20 19 22 21 18 18 16 14 12 14 21 21 22 23 23 24 22 21
30 25 21 18 24 30 26 26 26 25 27 27 38 46 41 43 42 39 40 36 39 31 27 26 22 22 20 22 24 24 19 21 19 19 22 26 28 28 27 28 27 28 27
28 26 25 21 17 25 33 30 30 29 28 29 34 42 44 46 44 45 43 40 42 39 32 29 29 28 22 30 28 25 22 19 20 23 26 28 31 31 32 31 32 33 34
28 27 24 17 17 20 29 36 31 30 31 33 34 41 45 43 46 43 44 44 43 40 35 35 36 36 29 33 27 27 23 23 24 27 27 27 30 30 33 33 34 32 35
25 26 25 19 17 20 25 33 36 30 32 33 35 37 43 45 48 46 43 48 45 46 44 40 40 39 34 32 29 31 28 29 30 31 33 33 31 31 32 34 33 34 37
22 23 21 19 19 20 21 25 29 31 30 31 34 36 44 46 47 48 47 50 49 44 44 43 42 41 42 39 36 33 33 35 33 34 34 33 31 31 32 32 32 37 38
21 19 21 24 20 17 7 20 24 26 26 30 34 36 41 44 44 44 45 48 46 43 40 43 44 46 45 43 40 37 37 35 34 35 38 36 34 35 34 34 34 38 38
20 18 20 27 23 15 7 2 12 17 23 29 33 34 40 44 43 42 43 44 48 45 42 43 47 48 45 46 45 41 39 40 42 43 39 41 40 38 38 36 36 37 38
19 18 21 24 25 14 9 5 10 14 18 25 32 32 38 44 41 43 42 44 45 49 45 45 47 48 46 45 46 47 48 45 45 50 46 47 46 44 43 43 44 45 47
14 16 19 20 22 19 12 6 9 13 18 21 30 31 39 44 41 43 42 44 45 46 46 46 46 49 52 51 49 48 50 50 50 50 51 51 49 51 52 50 50 50 52
12 15 17 19 19 19 15 11 5 10 9 16 26 32 39 45 42 43 42 43 43 46 48 50 50 50 49 51 52 51 51 51 48 50 55 55 56 55 56 56 55 57 58
12 15 16 17 18 15 16 14 10 6 10 8 18 29 36 37 40 43 42 43 45 49 51 50 50 49 50 51 50 50 50 50 53 56 58 58 59 60 59 60 63 63 64
13 12 14 13 13 12 13 13 15 11 5 7 8 16 22 30 36 38 40 41 39 41 45 48 48 47 47 48 52 53 56 58 59 61 62 64 65 66 68 70 70 70 72
13 13 14 10 11 11 13 15 13 12 9 6 6 10 15 20 27 31 32 34 39 41 43 42 42 46 50 51 54 57 59 62 64 65 67 70 71 70 69 70 72 76 77
13 14 14 15 14 17 14 14 14 14 11 6 7 13 20 27 26 28 31 35 38 44 48 49 49 48 50 52 52 53 56 62 62 62 63 67 71 73 78 80 80 81 80
11 12 13 14 14 19 14 13 13 13 13 12 11 11 13 19 29 36 40 43 48 51 53 55 57 60 62 62 63 66 69 70 70 70 71 72 73 73 75 78 83 83 83
13 13 14 15 15 15 15 14 14 15 16 17 18 19 20 22 25 30 37 43 47 49 53 55 58 60 63 66 68 71 73 75 77 78 81 83 85 86 88 89 90 89 90
16 16 16 17 19 20 20 20 20 20 20 21 23 24 27 30 32 34 37 40 44 48 52 54 57 61 65 69 71 73 75 78 80 82 83 84 84 84 85 86 88 88 89
22 22 23 23 23 25 26 25 25 26 28 29 29 29 30 31 34 36 39 42 45 48 51 54 57 61 64 66 69 71 74 76 79 81 84 86 87 88 89 90 89 90 91
29 32 32 30 30 32 33 33 32 33 34 37 39 42 44 46 47 49 50 53 55 56 57 58 61 63 66 68 70 72 74 76 78 80 83 86 89 92 94 97 98 100 101

GFSMA_250_spd_021.txt.gz
Wind_Speed
13 6 2 1 5 2 8 12 25 44 42 41 41 36 30 30 27 29 25 19 16 17 10 11 15 14 10 5 10 18 11 8 7 6 8 6 8 9 10 7 9 10 8
22 21 16 11 2 3 1 9 25 34 53 50 43 42 38 35 32 28 26 25 21 16 14 13 16 13 9 4 14 12 10 7 6 7 11 12 10 11 11 10 11 12 10
18 20 18 20 3 5 13 7 32 29 36 55 54 48 42 41 31 38 29 27 25 21 18 16 16 9 14 8 13 15 12 9 7 6 8 12 12 14 13 10 12 11 15
16 18 19 20 7 9 20 24 32 34 27 35 51 51 52 43 42 32 33 33 28 25 19 19 21 22 15 12 17 15 13 13 12 11 10 13 16 15 15 14 15 16 16
20 22 24 23 25 16 31 40 39 36 35 30 32 41 48 51 43 43 37 32 30 28 25 25 22 20 19 19 22 20 13 16 11 12 12 12 15 18 19 22 21 17 20
22 26 29 34 27 22 24 31 38 40 36 35 30 33 36 46 49 42 39 32 31 30 28 28 25 20 29 25 27 25 21 16 12 14 11 10 11 17 18 18 19 21 23
31 31 34 39 38 27 28 28 29 36 35 34 33 28 35 41 48 41 42 38 36 34 31 27 33 37 32 31 28 22 19 19 19 16 13 18 16 23 22 25 24 26 27
36 37 42 41 29 26 23 28 27 30 36 33 34 33 28 37 49 45 42 41 37 37 31 34 36 36 35 32 31 27 27 18 17 17 17 17 23 27 24 28 30 32 33
37 39 35 25 24 23 22 26 32 27 32 33 33 34 35 30 47 51 43 40 34 38 37 36 37 37 37 36 33 36 31 24 23 24 25 22 29 29 32 36 34 31 28
39 29 25 24 21 20 23 25 29 27 30 30 35 35 34 36 36 56 50 42 39 38 39 39 40 40 42 38 38 36 32 26 23 30 29 29 26 29 31 32 31 31 30
33 24 21 21 18 21 25 22 23 27 30 38 37 33 33 35 36 44 56 49 46 42 44 44 42 46 41 39 38 37 36 35 35 34 41 34 34 35 33 35 35 36 33
19 20 19 17 16 21 22 18 21 26 34 38 41 37 34 29 30 39 50 52 49 46 47 38 50 45 40 44 41 40 42 41 42 40 40 39 38 38 38 36 39 40 37
18 17 18 14 14 17 18 18 22 23 27 36 42 37 33 32 31 34 44 44 50 48 51 56 54 51 48 51 47 46 48 46 42 47 48 47 48 43 42 42 37 40 40
14 14 13 13 13 14 14 15 14 11 12 26 32 40 31 29 33 32 40 48 45 48 52 55 56 56 52 53 53 50 54 53 51 53 51 52 51 48 49 51 42 46 46
10 11 10 11 10 10 11 14 11 7 10 16 30 33 32 32 31 31 35 46 45 47 49 52 54 54 56 57 58 57 59 59 53 53 53 56 52 48 47 46 48 52 53
6 7 11 10 8 6 6 9 9 8 8 13 19 25 30 32 32 34 33 38 50 50 48 47 53 56 54 56 55 53 53 53 51 53 56 58 58 53 54 54 54 56 57
7 6 6 7 8 6 4 6 8 6 13 16 18 23 27 29 33 34 35 34 35 50 50 43 47 52 56 57 57 58 57 53 52 52 53 56 56 57 57 57 57 60 62
8 7 5 5 8 7 4 4 7 10 4 17 21 23 28 31 34 36 36 31 33 40 43 41 44 48 48 51 53 55 57 59 59 57 58 58 60 59 60 59 58 59 59
7 6 6 6 7 7 7 5 7 9 12 3 9 12 14 11 11 22 34 30 31 35 40 47 45 44 48 51 54 55 57 59 60 60 60 58 59 61 62 62 63 61 63
6 7 5 5 6 9 12 13 8 8 9 5 5 8 8 10 12 7 14 23 28 30 36 44 47 48 45 46 48 52 55 59 60 61 61 61 59 55 56 61 63 63 72
8 8 8 8 6 6 8 10 10 9 9 9 10 11 11 11 20 21 22 23 24 30 34 35 38 42 45 49 50 51 53 55 57 62 64 65 67 68 70 70 70 72 77
4 5 5 6 6 7 8 10 12 13 14 15 14 14 15 17 19 23 27 31 35 36 40 43 46 51 55 55 57 60 63 64 64 65 64 63 64 66 68 70 74 76 78
8 7 8 9 8 8 9 9 12 13 15 16 16 17 19 21 24 26 28 32 37 42 48 52 57 58 59 61 63 65 62 65 71 74 75 76 77 78 78 80 82 84 87
15 16 16 15 14 15 14 16 20 22 22 23 24 26 27 29 32 35 37 38 40 44 48 53 59 63 69 73 74 73 74 74 75 78 79 80 83 86 87 89 91 94 97
25 24 21 22 23 23 22 26 29 26 28 29 30 32 35 38 41 44 46 48 51 55 59 59 61 64 68 72 74 76 77 77 78 80 80 82 82 83 84 86 88 90 92
32 30 30 32 33 32 30 32 31 36 36 38 41 43 45 49 51 53 55 58 62 64 65 67 72 74 75 76 77 80 82 84 84 85 84 86 87 88 90 91 93 96 98

GFSMA_250_spd_024.txt.gz
Wind_Speed
22 23 24 7 4 5 6 11 18 29 22 36 32 34 34 34 32 27 25 28 24 16 18 16 18 18 12 5 7 7 11 11 8 6 7 7 5 7 10 10 8 11 9
13 17 20 19 4 8 9 17 15 20 30 25 38 43 42 37 35 30 25 29 24 18 18 19 18 19 13 7 8 8 19 11 6 6 6 7 10 9 10 9 6 8 12
12 12 13 15 16 8 9 18 22 27 24 23 31 37 45 37 37 36 32 28 28 23 22 20 21 19 18 14 10 7 12 11 13 9 8 8 9 11 10 9 8 10 13
16 15 16 16 22 19 16 16 17 13 17 25 34 32 50 49 38 40 37 33 29 29 26 24 23 21 22 16 17 11 11 12 10 11 9 11 13 16 14 15 13 14 17
19 19 16 17 23 24 24 22 24 34 25 28 33 30 38 44 49 44 40 42 37 38 34 28 22 23 26 20 20 17 14 19 13 13 11 12 7 10 14 16 15 16 17
23 22 23 24 29 31 36 21 28 33 34 42 47 40 37 33 40 47 45 43 37 34 33 30 28 27 29 28 24 26 21 20 15 17 16 15 14 14 14 18 20 20 22
28 27 28 30 33 34 26 26 24 26 20 17 45 43 40 38 35 39 48 49 44 41 36 29 29 27 29 26 27 29 24 23 22 21 21 21 20 18 18 21 23 23 23
33 31 30 33 36 40 26 27 25 27 33 38 37 41 39 38 34 33 35 41 44 40 35 33 32 31 33 36 30 28 26 26 26 25 20 20 20 22 23 26 29 28 33
37 35 34 37 35 29 27 26 24 26 27 30 33 34 37 35 33 31 35 40 40 41 38 35 35 30 33 35 33 33 33 34 33 30 31 28 25 27 27 33 35 33 34
41 36 35 35 25 23 24 25 26 25 27 29 30 34 35 31 33 34 29 43 45 42 43 40 35 30 28 32 37 39 40 39 36 37 35 28 33 34 32 34 33 33 32
35 30 26 29 21 22 20 21 25 23 22 24 25 33 31 32 30 32 32 33 46 42 40 31 32 32 27 35 34 40 44 39 40 41 38 39 36 36 41 39 37 38 39
33 23 20 16 19 17 19 20 25 22 22 22 27 33 30 27 25 29 31 36 43 47 43 33 30 28 30 34 31 33 27 37 46 45 44 43 37 39 41 42 43 43 39
30 24 18 15 13 13 16 15 15 18 23 25 25 31 35 34 32 26 29 33 33 50 46 38 32 31 21 39 37 56 34 33 34 45 44 44 48 46 48 50 51 50 45
21 17 17 14 13 11 12 12 13 15 13 15 23 31 35 39 31 29 27 27 31 40 52 44 39 40 41 39 52 46 33 58 47 49 51 53 55 57 58 58 57 52 49
14 16 15 13 10 10 12 14 13 11 10 12 16 14 26 35 28 28 27 29 28 33 44 51 49 52 62 55 49 59 71 67 63 61 60 61 59 59 61 59 59 58 53
14 14 12 13 13 12 11 12 12 12 11 8 8 12 19 24 28 29 28 29 29 33 37 49 54 56 62 66 64 66 69 72 71 70 69 67 66 61 60 58 60 61 58
11 13 12 11 13 12 10 10 10 13 11 13 10 11 17 23 25 28 30 32 32 33 35 40 45 60 61 65 66 68 69 70 70 70 71 70 65 66 65 63 61 62 61
11 11 14 12 13 11 8 5 5 11 16 9 16 17 19 23 26 29 30 30 32 33 34 39 43 47 54 59 63 67 69 71 72 71 72 71 69 67 68 67 66 66 68
6 8 8 9 11 10 8 9 9 8 12 10 5 10 13 14 16 23 27 31 39 38 37 36 42 45 47 47 51 55 61 65 67 65 65 65 65 67 70 72 69 70 66
3 3 2 5 9 11 11 12 11 9 9 8 6 4 5 7 13 15 18 19 23 31 38 35 33 36 40 44 51 52 54 57 62 64 67 67 69 70 71 70 68 68 71
3 1 2 2 1 2 1 2 3 4 5 5 5 6 7 7 12 21 25 25 25 27 30 34 35 40 43 47 52 55 56 57 59 61 63 65 67 70 71 71 72 72 72
6 7 6 7 5 3 6 6 6 7 8 9 8 9 10 11 12 12 14 17 20 22 26 37 43 42 44 52 57 59 63 65 68 68 71 71 70 70 71 72 74 77 80
9 11 13 16 16 14 12 13 14 14 15 16 16 16 16 17 19 21 23 26 29 30 31 34 36 40 44 49 59 66 69 72 74 76 77 77 77 81 81 80 81 81 82
13 13 18 22 21 19 20 22 22 22 25 22 23 23 22 24 27 30 32 35 37 40 44 47 49 53 57 60 65 67 68 72 78 86 88 87 89 91 89 87 88 86 87
23 22 25 26 28 26 26 27 28 28 31 32 34 36 40 45 44 43 43 45 49 50 52 56 60 64 68 70 73 73 77 81 84 86 86 91 92 96 98 97 96 96 97
32 30 32 32 33 34 36 37 38 40 40 40 43 45 47 47 47 49 51 55 59 61 65 69 71 74 78 77 75 78 82 87 91 94 93 94 96 96 97 97 98 100 101

GFSMA_250_spd_030.txt.gz
Wind_Speed
11 12 9 8 7 3 6 5 11 33 27 25 25 24 23 25 23 23 20 22 18 20 18 15 14 13 15 15 11 9 6 3 5 4 5 4 5 4 4 5 4 2 5
8 5 7 9 12 7 6 6 3 16 29 30 23 22 18 19 20 22 23 23 24 22 22 21 18 17 16 18 17 15 13 9 7 6 8 6 6 6 6 6 4 7 6
8 2 7 9 10 11 7 5 7 12 9 20 33 34 25 18 17 15 23 28 26 25 26 23 23 19 18 18 19 19 19 16 11 9 8 8 8 9 9 9 8 8 9
8 2 8 14 12 12 10 11 10 6 19 16 23 29 28 19 22 20 14 22 29 27 27 27 26 24 19 19 23 21 22 16 14 14 12 10 10 11 11 12 13 12 12
12 10 9 14 17 16 19 22 16 14 17 23 26 30 35 26 24 26 21 18 30 32 29 29 28 29 24 21 20 22 22 18 19 18 17 15 16 15 14 16 16 15 12
10 14 16 19 22 27 22 22 27 24 18 25 28 32 37 36 33 30 24 24 20 32 36 33 31 31 28 25 21 24 26 23 22 23 21 21 19 20 17 18 19 18 17
18 21 25 25 30 28 31 34 30 27 25 22 26 31 31 36 36 36 33 34 38 34 29 37 37 30 31 28 27 26 26 30 27 26 27 27 25 25 23 19 19 21 21
22 25 28 29 32 33 36 35 31 31 29 26 28 31 34 38 39 41 39 27 28 32 33 29 41 41 40 35 29 27 26 30 30 31 30 27 31 28 28 24 22 22 22
30 34 37 37 35 35 32 31 29 26 25 27 30 31 35 37 33 34 34 35 33 32 35 33 33 42 38 33 30 30 29 30 32 34 32 31 32 36 32 32 30 32 31
34 39 38 37 39 32 28 27 29 26 24 26 28 32 36 35 40 44 46 46 40 34 37 36 29 39 43 38 35 34 35 33 32 30 32 33 32 35 35 36 35 34 38
33 38 40 40 39 37 30 28 26 26 23 25 26 29 31 32 34 37 33 33 31 30 33 34 34 33 40 38 31 30 36 31 28 37 34 38 38 42 37 38 38 38 38
41 42 43 45 44 27 25 26 23 23 22 22 23 23 25 29 28 32 34 36 34 32 33 30 31 33 35 37 39 36 37 36 34 36 42 43 41 39 40 37 38 43 43
38 40 46 43 24 19 19 20 20 21 21 22 22 23 25 26 25 26 24 19 29 30 27 34 35 31 39 40 41 40 37 40 34 39 46 44 44 44 42 47 46 48 50
37 42 39 28 19 17 18 18 20 19 20 21 17 17 17 19 24 21 23 29 30 32 32 29 30 35 36 46 41 42 45 43 40 43 44 46 41 39 36 41 47 50 51
34 34 28 21 19 18 19 19 18 15 13 14 18 13 13 12 17 21 24 26 26 27 27 26 27 28 33 44 45 47 48 44 42 38 39 45 44 48 54 48 46 49 51
23 23 20 19 19 18 18 21 21 16 15 14 20 10 8 9 6 22 29 30 29 34 26 27 28 28 28 35 47 51 47 44 45 49 41 45 48 52 55 60 60 54 68
15 19 19 20 20 17 17 16 16 14 12 14 16 9 7 2 2 1 7 15 26 26 27 29 26 28 30 32 36 48 59 58 58 60 65 65 64 62 65 70 70 74 79
12 13 14 16 16 14 12 12 14 15 17 17 15 9 8 8 10 12 14 17 20 23 26 28 30 32 32 34 37 39 45 55 65 69 72 75 78 79 78 75 77 83 85
12 16 12 11 13 14 10 10 12 14 18 20 16 10 8 11 11 12 16 20 22 23 27 29 30 31 35 38 40 42 46 48 51 55 63 69 73 77 79 81 83 85 86
15 15 10 8 9 9 8 10 11 10 8 8 9 11 11 11 13 15 17 21 23 23 23 24 25 29 29 31 34 39 46 51 54 56 58 59 59 59 61 64 68 72 75
18 12 12 11 10 7 5 7 8 9 10 10 11 12 12 13 14 16 18 19 22 23 24 26 29 28 29 30 32 36 40 43 46 50 54 58 60 62 64 66 69 71 72
21 17 16 16 15 13 13 14 14 14 14 16 18 20 19 20 20 20 21 23 25 26 28 29 32 36 38 39 41 42 43 45 48 51 53 57 61 64 67 69 75 78 80
24 23 20 21 20 21 21 20 18 20 21 23 26 28 30 31 28 28 29 31 32 34 37 42 47 50 50 54 54 53 56 55 57 59 61 66 69 72 75 78 81 83 85
27 26 23 22 24 26 26 26 25 25 28 31 32 31 32 33 36 37 38 40 42 45 50 50 53 53 53 56 59 60 61 64 66 67 70 74 76 79 81 83 86 89 92
32 31 30 30 31 35 36 36 34 35 35 36 38 41 43 44 43 43 45 46 49 51 54 57 59 59 61 67 69 69 71 72 74 75 78 80 82 83 86 89 94 97 98
37 36 37 38 41 42 43 41 40 40 45 47 49 49 50 51 52 52 53 56 57 59 62 64 66 69 73 76 74 75 75 77 80 81 83 83 85 89 94 97 98 98 95

GFSMA_250_spd_033.txt.gz
Wind_Speed
8 15 15 18 17 10 9 7 3 21 25 24 26 28 28 29 25 23 21 24 25 20 18 16 14 15 15 10 11 10 11 10 3 7 3 4 4 3 3 3 4 4 4
5 5 7 11 13 14 13 7 6 2 15 26 16 20 28 29 25 26 24 24 21 23 24 23 19 18 17 16 13 14 16 17 13 12 7 6 6 6 5 6 6 8 6
8 4 11 16 11 11 8 8 12 8 6 20 26 22 20 19 17 19 24 24 24 25 25 24 24 21 19 19 18 13 15 20 21 16 9 10 8 9 9 9 9 9 9
6 4 5 8 14 14 12 15 13 10 10 13 13 24 28 28 31 24 22 19 21 25 28 26 25 26 22 21 20 19 17 22 22 18 13 11 10 10 11 12 12 13 14
8 8 8 9 10 17 21 23 15 15 17 18 22 20 22 28 29 26 25 23 18 18 23 27 27 26 27 25 26 22 20 20 24 21 18 17 16 15 14 14 13 15 16
16 9 11 16 20 21 24 24 23 26 27 24 24 27 27 28 34 37 33 30 29 25 23 23 24 27 27 27 28 27 23 22 23 22 23 21 20 19 19 19 17 17 17
14 15 18 19 26 30 33 32 33 33 34 32 27 29 34 33 38 37 40 35 36 32 30 28 27 31 34 30 30 28 26 23 26 28 28 24 25 24 25 24 23 20 21
18 19 25 31 34 37 35 35 36 35 33 29 29 31 32 34 35 46 47 49 46 41 39 34 37 35 32 39 32 30 31 30 25 27 25 29 32 31 27 27 30 26 24
23 25 28 33 35 35 38 38 38 32 26 28 26 28 32 36 35 36 40 46 50 46 44 32 26 34 38 39 40 39 37 33 32 30 27 18 35 31 27 28 28 30 31
26 28 29 33 36 37 40 46 43 34 28 26 26 26 29 31 33 34 34 36 39 42 40 37 38 38 39 37 42 40 39 42 36 39 35 38 37 35 36 35 30 30 32
31 28 34 38 40 45 49 45 31 26 24 23 23 23 23 25 28 28 34 34 36 41 42 46 47 40 39 36 36 41 41 44 43 41 42 39 34 35 36 31 30 35 39
28 31 37 41 45 45 35 25 20 18 19 20 20 22 22 24 24 34 33 32 34 39 42 41 40 37 36 38 38 36 40 45 46 45 44 39 35 39 36 40 41 39 44
30 36 43 41 42 32 18 15 16 17 18 20 21 22 22 20 20 27 30 30 30 35 37 37 37 36 33 39 37 41 45 44 44 43 43 43 49 46 43 43 45 47 51
32 32 35 37 35 22 19 16 16 18 16 16 15 18 22 22 18 16 25 24 23 24 27 25 31 29 36 34 32 38 46 47 43 46 46 45 43 46 48 51 46 41 41
24 30 31 28 24 20 19 17 16 18 18 17 18 19 23 16 13 13 17 21 24 26 27 25 28 31 28 30 32 40 38 48 48 43 47 50 49 49 48 51 51 51 52
26 24 16 19 20 18 20 18 17 18 17 15 14 18 16 10 9 9 14 21 22 22 18 26 27 30 30 29 30 31 34 38 47 51 51 53 55 52 49 44 47 47 50
24 16 12 20 19 17 17 17 15 15 14 15 19 19 15 7 3 4 10 22 26 23 28 32 31 30 27 28 28 31 33 34 38 43 56 56 55 55 55 54 57 62 67
18 12 15 21 17 16 17 15 12 13 14 15 20 22 15 13 8 8 8 14 17 16 18 22 25 26 29 32 33 34 34 36 38 41 45 51 58 62 64 67 69 67 70
15 11 19 17 15 14 15 13 11 13 15 16 16 13 12 12 12 13 13 14 18 20 22 24 27 28 29 30 31 34 37 40 43 44 46 49 52 55 58 60 61 64 67
17 13 19 16 12 12 12 11 9 8 10 12 12 11 11 12 13 14 15 16 18 21 24 26 29 30 30 31 34 34 35 37 40 42 44 47 51 54 56 58 60 61 62
21 16 15 17 16 14 14 12 11 13 15 16 17 15 15 17 19 20 22 23 23 24 25 26 29 30 31 31 33 36 39 42 43 45 48 51 54 56 59 61 62 65 68
23 21 19 21 20 18 18 18 20 23 25 25 24 23 23 24 26 29 31 31 31 30 31 31 33 34 37 40 42 46 49 53 55 58 61 63 65 66 67 67 69 70 72
25 26 26 24 26 23 23 24 26 30 29 31 30 31 31 32 34 35 36 38 39 40 41 42 43 46 48 51 55 57 60 60 59 60 65 67 69 71 74 76 78 80 82
32 31 31 28 29 27 26 26 28 30 34 35 38 37 38 38 40 42 44 46 50 53 54 54 55 55 57 60 62 64 65 67 68 69 72 74 76 80 82 84 85 86 87
35 35 36 36 35 36 35 34 35 40 44 42 43 45 46 49 52 52 51 55 58 57 59 62 62 64 66 69 72 72 72 74 76 77 77 76 74 75 77 79 81 85 87
38 41 40 39 38 40 42 44 45 48 51 51 50 51 53 56 59 61 65 67 63 65 65 62 64 66 69 73 75 77 78 78 77 75 76 77 78 79 82 84 87 90 92

GFSMA_250_spd_036.txt.gz
Wind_Speed
8 8 13 16 18 18 13 13 8 12 20 17 20 23 18 24 25 17 16 16 16 17 19 19 19 18 14 11 11 8 10 10 8 9 7 5 4 5 4 4 4 6 6
5 10 16 13 13 13 12 12 12 9 5 19 20 20 23 24 28 29 24 24 22 22 23 24 20 18 15 14 13 13 13 13 11 13 14 9 6 6 7 7 9 6 8
3 5 7 4 7 8 9 12 9 6 5 5 15 20 18 21 29 28 29 23 26 23 25 23 24 24 21 19 18 16 14 14 13 16 15 12 7 8 8 7 9 9 11
6 3 5 6 7 7 11 12 14 9 8 9 9 13 21 22 20 24 21 16 19 25 25 25 26 26 24 22 19 18 17 18 18 20 22 15 12 11 10 10 10 12 11
8 5 5 6 7 10 12 16 16 15 17 18 18 19 20 20 26 27 24 23 22 21 19 26 28 29 28 27 22 21 20 20 19 20 25 19 18 16 14 13 13 14 14
10 10 8 7 10 13 23 22 24 22 22 22 23 24 25 28 26 28 31 30 25 25 22 23 21 30 28 25 22 23 22 21 21 19 22 25 21 19 18 18 18 20 21
14 10 9 11 16 23 24 25 24 27 27 27 28 27 28 29 32 34 35 35 35 34 34 30 29 23 28 28 24 25 25 26 23 20 13 25 27 28 27 24 24 21 25
18 14 16 19 22 25 28 31 34 33 33 36 32 30 26 29 30 35 35 40 40 42 41 36 32 31 29 32 31 30 28 29 31 26 26 27 29 29 34 33 31 31 24
22 21 23 24 27 31 34 40 40 42 42 37 31 25 24 24 30 35 37 38 43 45 42 43 41 41 37 35 39 36 37 35 33 33 38 32 31 32 35 32 35 32 29
29 31 29 31 31 36 40 42 47 46 33 25 22 23 23 23 24 28 34 36 37 37 40 43 42 41 39 33 29 34 42 40 39 40 40 42 39 37 32 25 32 37 38
31 31 33 34 33 37 45 48 42 24 15 14 14 15 17 19 21 24 26 28 33 34 33 37 38 40 41 40 36 36 43 41 44 43 48 47 49 47 43 37 38 33 34
30 30 27 29 36 42 48 43 23 15 11 10 12 13 13 15 18 20 23 28 27 28 33 35 41 42 40 39 40 41 42 41 47 41 41 46 50 51 49 47 44 47 44
27 31 30 32 42 46 39 26 19 16 10 9 11 11 13 14 16 18 21 28 35 35 33 32 34 35 37 35 36 35 37 40 41 47 48 50 50 50 51 51 51 50 51
25 25 24 34 34 29 25 19 17 15 13 7 8 10 14 15 16 18 18 20 23 24 26 26 29 34 37 35 33 35 33 37 41 45 50 52 52 52 52 51 51 53 56
22 25 24 24 18 20 19 20 17 14 13 10 10 11 12 16 16 12 13 14 17 19 17 24 28 26 23 26 30 30 34 37 38 39 46 52 55 55 53 55 56 58 56
18 19 20 17 16 18 17 19 16 14 12 10 10 11 16 16 13 8 6 15 20 20 27 24 27 28 29 27 28 31 32 33 32 35 37 38 50 55 51 51 56 59 59
18 21 16 13 17 16 16 18 14 12 11 10 10 13 17 15 11 6 4 8 16 10 20 27 32 31 30 30 32 31 30 31 32 34 36 36 39 46 54 61 61 59 61
14 13 12 11 15 13 14 16 14 10 10 11 13 13 13 10 8 9 10 9 10 12 14 14 25 29 30 29 32 32 34 35 37 39 39 40 41 44 47 50 56 62 66
12 13 14 14 15 13 13 15 12 9 9 8 9 11 10 8 8 10 14 16 16 16 17 19 22 26 28 29 30 30 31 34 36 37 39 42 45 48 50 51 53 56 59
18 18 17 14 15 15 15 13 14 10 11 12 13 14 16 14 13 13 13 14 16 18 21 22 24 28 31 32 34 35 36 36 35 37 38 40 43 46 48 50 53 56 60
17 19 22 20 19 18 19 18 17 16 17 18 18 18 21 21 22 24 24 25 26 26 27 27 28 30 32 33 35 37 38 39 42 44 46 50 52 53 57 59 62 65 67
25 27 27 25 24 22 23 23 22 21 20 23 23 20 23 26 29 31 33 33 35 35 34 35 36 39 42 43 46 47 48 51 55 55 58 60 62 66 68 67 67 69 71
31 31 29 29 27 29 29 28 29 27 26 25 25 25 29 31 34 36 38 40 40 39 42 45 45 47 52 55 55 58 60 62 63 65 66 69 71 73 75 77 78 79 80
28 30 32 32 34 34 33 32 34 33 32 33 34 34 37 41 43 43 45 46 48 49 52 53 56 57 60 60 60 62 64 67 70 70 73 75 78 79 79 80 82 84 83
31 32 36 38 38 37 38 39 39 40 42 43 44 44 46 49 50 51 53 55 56 56 56 57 60 60 61 63 64 65 66 67 69 71 75 79 81 82 82 80 77 76 77
38 40 43 45 46 46 43 42 43 43 45 47 47 49 52 54 55 57 59 60 61 61 62 62 64 67 65 67 69 69 70 71 72 72 73 74 75 76 77 78 79 81 84

GFSMA_250_spd_042.txt.gz
Wind_Speed
8 10 11 14 16 15 13 7 7 11 15 15 18 22 21 20 20 27 26 25 24 20 19 17 16 16 14 13 12 8 6 7 11 10 8 7 7 6 6 7 5 4 5
3 7 8 10 9 12 13 13 7 3 1 11 17 18 22 23 22 27 26 23 23 21 22 22 19 17 17 13 11 11 9 9 11 12 11 8 7 7 7 8 6 5 4
6 4 3 5 4 4 5 7 7 6 2 2 4 7 19 24 25 25 24 27 26 26 25 26 22 22 22 18 15 16 13 15 15 14 12 10 12 12 12 10 10 7 5
10 11 7 3 3 1 1 4 7 6 4 5 8 9 12 13 24 27 32 31 33 33 30 29 30 23 24 22 21 20 18 19 20 22 21 21 19 17 22 16 14 11 7
14 11 8 4 9 6 5 6 9 7 10 13 17 17 16 17 18 22 27 33 36 36 37 33 30 28 28 27 27 27 24 22 24 17 22 27 19 21 26 23 15 14 12
17 17 15 12 10 11 9 10 11 15 17 20 23 27 27 23 22 24 29 33 33 37 39 33 28 28 30 29 30 31 29 24 24 23 26 22 21 23 21 29 22 20 23
18 19 13 13 14 18 16 13 16 23 23 27 32 36 36 31 29 30 31 33 38 39 38 38 33 29 32 32 34 36 34 28 28 33 31 26 25 28 25 27 26 27 29
23 20 20 18 18 18 21 21 22 27 31 34 39 42 38 32 32 33 33 34 37 40 41 41 39 35 32 33 32 34 37 36 36 36 37 35 36 30 34 26 29 32 36
25 22 20 23 20 21 25 28 28 35 36 35 37 36 28 27 26 30 32 33 34 34 35 38 45 40 35 32 33 33 34 36 38 36 38 37 39 41 40 40 32 32 36
30 27 27 24 23 27 31 31 33 33 34 32 34 28 20 16 18 21 24 26 29 34 36 40 37 38 41 41 42 38 37 34 35 35 39 41 41 43 44 41 41 39 37
31 33 30 31 30 34 33 32 31 35 30 28 25 19 12 9 12 17 19 21 26 29 32 39 39 42 37 43 46 47 46 47 47 45 43 42 47 49 47 45 46 48 48
31 34 32 36 37 35 32 32 32 30 26 26 21 16 9 8 9 14 15 20 23 26 28 32 38 43 43 44 45 45 42 43 47 49 51 51 53 50 51 52 52 53 54
32 34 38 39 33 34 30 27 31 23 22 19 20 14 11 10 10 12 13 18 24 27 26 28 30 33 38 39 38 39 37 40 43 45 45 44 46 47 48 55 57 59 59
32 32 32 32 29 31 27 30 24 17 17 14 12 13 14 13 13 13 17 19 21 27 29 24 29 28 30 29 29 31 33 34 35 35 39 43 45 47 48 51 54 55 61
30 31 29 28 27 27 24 21 16 12 14 11 8 8 14 16 17 18 17 16 16 14 12 14 24 26 28 30 33 33 34 36 37 40 41 41 42 43 44 42 44 51 54
34 28 24 21 21 21 20 16 10 11 11 9 7 7 8 9 11 17 14 10 12 13 14 24 22 16 17 27 30 31 33 32 33 33 35 39 38 41 42 44 44 47 52
14 14 17 19 19 18 12 11 10 10 10 10 7 6 5 6 5 2 8 9 10 10 10 15 23 30 29 28 31 31 32 36 36 39 38 41 40 41 44 45 45 46 45
14 12 12 9 9 7 7 9 12 15 14 13 12 9 10 10 9 7 6 8 8 11 14 14 14 24 34 35 41 37 45 43 40 40 39 39 39 39 42 44 47 49 50
8 12 14 12 6 7 9 11 14 16 17 17 15 15 17 16 15 14 13 12 12 14 16 16 16 19 22 27 31 33 36 36 38 40 42 42 43 43 45 46 48 51 53
19 19 18 12 9 7 9 13 17 20 21 21 22 23 23 22 22 23 21 20 20 20 20 22 24 25 26 28 30 32 33 35 37 40 42 44 44 45 47 49 51 53 56
13 17 19 17 16 16 16 17 17 19 22 24 28 28 29 28 28 26 26 26 27 27 26 27 28 30 32 34 37 39 40 42 44 45 47 50 52 54 56 58 60 61 64
15 17 20 18 17 14 11 14 18 21 24 25 25 29 32 34 34 36 34 35 34 34 33 32 33 36 39 43 45 47 49 51 54 56 58 59 61 64 64 65 66 67 68
21 21 22 16 14 16 18 20 22 27 30 32 33 34 35 37 39 43 43 43 43 44 45 45 47 50 50 51 52 54 57 59 62 63 63 65 66 67 70 72 73 75 76
12 13 18 18 19 20 17 26 30 31 35 38 40 43 39 41 43 43 44 46 46 47 49 51 54 56 58 60 60 63 65 67 67 68 70 71 72 74 76 78 79 81 83
17 20 23 27 25 23 36 41 41 41 41 41 41 43 40 42 44 46 48 49 51 52 55 57 60 64 66 68 69 69 71 70 71 72 74 74 75 76 77 78 77 76 77
28 26 25 29 31 35 42 44 46 46 46 46 45 44 42 44 44 46 48 51 54 57 59 61 64 66 68 69 71 72 72 73 73 71 74 75 74 76 75 78 78 80 82

GFSMA_250_spd_045.txt.gz
Wind_Speed
13 15 14 16 14 12 12 12 12 14 15 16 18 18 18 19 19 24 31 27 26 26 24 20 19 16 16 11 10 14 10 5 6 6 2 2 3 5 5 6 5 5 4
5 8 8 10 14 13 12 9 6 5 5 13 17 17 19 23 27 23 23 28 28 29 29 23 21 19 17 20 14 13 13 10 9 10 10 6 5 8 8 7 7 5 4
2 1 6 4 10 4 7 8 6 4 2 1 4 6 10 14 24 25 27 25 29 26 25 23 22 22 20 21 21 17 15 13 13 17 17 16 11 7 12 18 12 10 6
5 7 7 2 7 5 3 2 4 3 2 3 6 8 12 16 17 18 27 29 28 29 29 28 29 29 25 24 22 20 24 24 18 17 14 21 17 22 19 18 19 12 11
7 11 10 9 8 9 7 5 3 3 5 11 13 16 18 21 22 24 25 27 31 35 34 34 34 32 32 27 27 26 26 29 27 26 24 22 19 24 22 20 19 26 13
12 19 14 12 8 12 12 11 11 9 11 18 21 23 25 30 30 31 28 29 30 32 33 38 39 38 35 34 33 31 31 33 31 31 32 28 22 23 22 22 22 22 32
16 16 16 16 14 16 17 18 18 14 18 23 29 33 33 35 35 34 34 34 33 32 33 32 35 39 39 35 37 37 35 36 33 30 27 31 28 26 29 23 29 28 28
23 22 22 19 18 19 19 22 21 25 26 30 32 34 34 34 32 32 35 36 37 34 31 36 32 33 37 39 35 39 39 38 37 36 36 32 38 37 34 31 22 30 27
26 26 26 23 23 22 24 24 23 29 29 29 33 35 33 33 29 26 23 28 31 34 32 31 28 18 29 39 39 40 41 40 42 42 41 37 35 41 43 43 41 39 31
27 30 31 26 25 26 28 26 29 30 30 30 32 30 33 32 22 20 17 18 22 27 28 29 36 40 36 35 44 40 37 38 39 39 40 42 42 41 44 44 45 47 49
24 28 30 29 31 30 31 31 33 31 29 31 29 30 27 22 16 17 14 17 19 19 24 27 35 41 38 29 30 34 40 45 43 41 42 44 46 49 45 47 49 47 45
30 30 31 31 32 33 33 36 33 31 30 28 26 25 24 16 14 13 13 15 19 22 21 24 32 41 43 44 40 36 33 36 42 45 49 48 47 50 53 52 52 53 54
26 25 26 31 34 34 38 33 30 30 31 23 24 22 20 14 16 14 13 16 18 21 24 26 29 32 37 44 46 47 47 46 45 47 47 48 50 52 55 58 60 58 60
26 28 29 35 38 33 30 29 30 31 22 18 18 18 18 16 16 17 17 16 19 21 22 28 31 31 30 32 37 39 45 50 46 44 45 44 47 48 49 50 52 51 57
33 29 29 28 35 35 31 31 35 21 15 14 14 8 12 14 16 17 20 23 24 25 20 15 15 22 24 25 29 35 35 37 38 40 41 43 45 43 44 46 48 48 49
30 33 33 30 32 31 23 20 17 14 12 11 11 9 8 8 10 14 20 23 19 19 18 20 24 23 21 17 21 26 33 35 38 41 42 42 41 42 43 46 49 51 51
31 39 40 27 22 21 20 16 14 10 9 10 11 12 12 11 10 13 13 17 20 20 19 19 17 20 30 37 27 28 30 33 38 33 36 38 41 43 47 49 49 49 51
15 17 20 19 16 16 13 12 10 9 10 11 13 14 16 16 16 17 17 17 18 19 23 23 23 22 21 25 38 41 42 46 45 43 45 43 43 45 45 46 47 49 50
18 11 14 15 15 14 15 16 14 13 13 15 16 15 18 22 23 24 26 24 25 25 24 22 22 23 22 25 28 31 36 44 43 43 45 46 46 46 47 48 50 50 51
23 21 19 19 18 18 18 17 15 14 14 16 19 20 22 24 27 29 30 32 31 31 31 32 32 31 30 30 32 33 35 37 39 41 43 45 47 48 49 51 52 55 56
26 24 23 22 20 21 22 22 19 16 14 16 20 22 24 26 28 30 33 36 37 37 38 40 40 39 39 38 37 38 39 43 46 48 50 52 55 58 60 60 63 65 67
18 21 21 20 19 20 17 13 15 13 18 18 20 23 25 29 32 33 35 37 39 43 45 46 46 46 46 47 48 49 52 55 56 56 58 61 62 65 68 71 72 74 75
9 12 18 23 22 18 20 17 17 18 32 32 33 32 36 38 41 43 41 41 43 44 46 48 50 52 53 54 54 56 59 61 63 66 68 70 71 72 76 77 79 79 80
20 17 15 15 19 24 25 26 27 32 37 38 39 41 40 43 46 47 46 46 42 40 41 44 48 52 55 58 60 63 65 68 70 73 75 75 77 78 78 81 80 82 83
28 27 26 24 25 27 28 30 33 38 42 44 46 45 45 44 42 45 48 49 52 53 53 53 52 54 58 60 64 67 70 72 70 73 73 72 73 73 72 75 78 78 81
33 34 33 34 33 35 33 34 36 41 46 48 48 48 47 42 41 41 39 40 42 51 54 55 58 60 64 64 63 64 65 66 67 70 73 75 76 80 79 80 85 87 88

GFSMA_250_spd_048.txt.gz
Wind_Speed
16 14 12 14 13 7 14 22 9 10 10 13 12 16 15 17 20 25 28 28 29 29 25 24 19 18 18 16 13 11 12 10 5 3 5 4 3 2 4 4 5 4 4
9 7 8 12 15 15 13 9 9 11 11 10 12 15 19 20 22 24 24 26 24 25 29 27 25 20 22 19 18 16 13 12 10 11 9 8 8 6 5 6 8 8 6
6 4 3 5 13 8 10 8 6 5 3 1 2 5 8 9 12 15 24 26 29 29 25 26 26 25 23 21 20 19 20 17 12 10 10 13 11 15 15 15 13 15 12
2 4 5 2 7 12 7 4 3 4 3 1 4 9 11 13 14 14 15 20 23 30 28 26 25 23 23 22 24 24 22 22 23 23 20 13 14 16 18 16 18 15 18
9 9 11 9 7 10 11 10 7 5 5 4 7 12 17 21 24 28 26 24 25 25 29 30 28 29 29 31 30 25 27 27 23 27 25 22 25 24 22 19 22 21 18
15 14 13 13 15 16 14 14 13 12 10 12 16 19 25 27 28 30 33 33 31 30 29 25 28 32 35 36 33 34 30 33 31 31 30 28 30 24 28 26 23 23 21
17 14 19 19 16 18 15 17 18 20 20 20 22 26 27 30 32 30 33 34 34 34 32 29 27 29 33 36 39 40 38 34 35 35 36 34 35 30 32 30 26 26 24
19 16 18 18 16 15 15 16 18 22 20 23 26 28 28 31 30 32 34 33 29 29 34 33 29 31 31 29 31 35 38 38 37 37 39 37 35 32 37 36 36 34 30
24 21 24 24 24 24 19 20 23 26 24 27 29 29 30 28 28 30 31 23 18 18 20 32 33 29 24 22 26 29 29 38 39 37 40 39 35 37 34 34 39 39 38
24 28 31 29 29 29 27 24 24 27 28 29 29 29 28 23 28 29 8 20 14 18 13 19 26 30 13 13 13 22 30 34 32 33 36 40 40 44 40 38 39 43 45
26 29 30 24 25 26 26 26 26 26 30 30 28 25 21 25 23 21 15 14 15 16 17 17 19 24 29 35 31 25 28 36 35 37 41 40 40 42 48 46 44 42 44
26 23 24 21 23 28 27 27 29 33 30 25 26 27 25 23 24 19 17 11 14 20 24 21 22 24 29 37 36 36 36 34 36 39 40 43 45 46 46 48 50 54 51
19 21 24 25 24 27 28 28 36 33 25 24 28 30 26 20 20 17 14 14 12 22 25 25 26 27 30 32 41 48 47 46 46 43 42 42 44 46 48 50 53 58 57
19 25 29 25 27 33 32 34 30 28 28 27 26 26 24 23 18 12 11 17 18 23 24 25 28 29 31 37 36 39 42 46 52 53 55 52 52 52 55 54 53 54 58
31 27 32 31 33 28 27 32 33 34 31 37 24 21 20 19 17 18 20 20 21 24 27 27 27 25 26 21 27 32 35 37 39 43 43 41 43 45 47 50 49 50 52
31 35 35 38 37 34 33 36 37 27 24 20 20 17 16 17 16 16 18 19 21 23 25 27 23 24 29 27 24 24 24 28 31 32 34 36 38 41 44 48 49 48 49
27 35 36 35 38 40 37 30 25 22 19 16 15 15 16 15 21 18 17 19 19 22 26 28 29 27 25 26 28 33 34 34 35 37 35 38 43 43 45 44 44 52 52
29 27 32 31 29 26 20 19 20 18 16 17 18 20 20 19 18 19 22 23 24 27 28 29 31 33 33 32 31 31 34 42 46 47 43 46 49 48 55 52 50 51 52
28 25 20 20 27 22 17 16 17 20 21 24 26 25 26 26 25 27 27 27 30 31 33 35 35 36 36 37 36 34 33 35 39 42 45 46 47 49 49 49 51 53 54
20 25 27 24 21 20 20 17 18 21 24 23 23 24 25 27 30 32 33 35 36 37 38 40 40 40 41 42 43 43 43 44 45 46 47 49 50 51 51 54 56 58 59
18 24 26 27 26 23 23 20 22 25 27 21 17 18 20 21 23 27 29 34 39 42 42 41 41 43 44 46 50 50 50 51 51 51 52 54 56 58 61 63 64 66 67
16 16 16 20 26 26 25 24 24 25 22 20 17 18 20 23 31 35 38 43 45 44 48 48 48 45 44 49 52 54 55 55 59 61 61 62 63 67 69 71 73 75 78
20 15 15 19 24 27 29 28 26 27 28 29 33 35 38 41 40 41 38 45 43 45 48 51 53 55 55 53 51 52 52 52 56 60 64 66 68 73 75 78 79 80 81
23 19 19 20 24 24 27 28 28 27 32 36 38 42 41 45 48 49 50 51 51 48 48 48 48 49 56 58 56 56 59 62 63 66 68 69 70 73 75 76 77 79 81
28 28 29 31 31 32 32 33 34 36 36 35 37 41 44 45 48 51 53 52 50 45 45 46 46 46 42 44 53 58 59 58 59 62 63 67 70 74 79 83 84 86 88
38 35 35 36 37 38 41 40 39 40 40 41 41 44 50 50 55 57 57 54 48 46 44 48 49 48 47 46 46 48 53 56 59 69 72 76 78 80 81 85 89 90 93